Regional Weather Roundup
Issued by NWS Upton, NY

Current Version | Previous Version | Text Only | Print | Product List | Glossary On
Versions: 1 2 3 4 5 6 7 8 9 10 11 12 13 14 15 16 17 18 19 20 21 22 23 24 25 26 27 28 29 30 31 32 33 34 35 36 37 38 39 40 41 42 43 44 45 46 47 48 49 50
000 ASUS41 KOKX 190805 RWROKX REGIONAL WEATHER ROUNDUP NATIONAL WEATHER SERVICE NEW YORK NY 300 AM EST FRI DEC 19 2014 NOTE: "FAIR" INDICATES FEW OR NO CLOUDS BELOW 12,000 FEET WITH NO SIGNIFICANT WEATHER AND/OR OBSTRUCTIONS TO VISIBILITY. NYZ071-072-176-178-NJZ106-104-190900- NEW YORK CITY METRO AREA CITY SKY/WX TMP DP RH WIND PRES REMARKS CENTRAL PARK PTCLDY 37 24 59 NW6 29.99R WCI 32 LAGUARDIA APRT MOCLDY 37 26 64 NW16 29.97R WCI 28 KENNEDY INTL MOCLDY 38 24 57 NW16G22 29.98S WCI 29 NEWARK/LIBERTY PTCLDY 36 25 64 NW8 29.99R WCI 30 BRNX BOT. GARD N/A N/A N/A N/A W3 29.96F TETERBORO MOCLDY 36 24 62 NW8 29.97S WCI 30 $$ NYZ177-179-078>081-190900- LONG ISLAND NEW YORK CITY SKY/WX TMP DP RH WIND PRES REMARKS FARMINGDALE CLOUDY 37 26 64 NW5 29.96S WCI 33 ISLIP CLOUDY 34 27 75 W6 29.94S WCI 29 SHIRLEY CLOUDY 36 28 73 NW8 29.96S WCI 30 WESTHAMPTON CLOUDY 33 27 78 CALM 29.96S MONTAUK POINT N/A 38 27 64 W13G22 29.93S WCI 30 $$ NYZ052-065-067-190900- HUDSON VALLEY CITY SKY/WX TMP DP RH WIND PRES REMARKS WHITE PLAINS MOCLDY 35 25 66 NW14G22 29.93S WCI 26 NEWBURGH CLOUDY 34 27 75 NW14 29.96S WCI 24 MONTGOMERY CLOUDY 35 25 66 W8 29.95S WCI 29 POUGHKEEPSIE CLOUDY 36 25 64 W7 29.95S WCI 30 ALBANY CLOUDY 32 22 66 W15 29.96S WCI 22 $$ NJZ001-105-106-008-010-013-015-019>022-104-190900- NEW JERSEY CITY SKY/WX TMP DP RH WIND PRES REMARKS NEWARK/LIBERTY PTCLDY 36 25 64 NW8 29.99R WCI 30 TETERBORO MOCLDY 36 24 62 NW8 29.97S WCI 30 CALDWELL PTCLDY 36 23 59 NW8 29.98R WCI 30 MORRISTOWN N/A 39 25 56 W8 29.99R WCI 34 SOMERVILLE CLOUDY 38 23 55 NW7 29.99R WCI 33 SUSSEX CLOUDY 35 24 64 NW7 29.97S WCI 29 ANDOVER N/A 34 24 67 VRB5 29.97S WCI 30 TRENTON CLOUDY 36 25 64 W7 30.01R WCI 30 MILLVILLE MOCLDY 35 26 69 W9 30.05R WCI 28 ATLANTIC CITY CLOUDY 35 25 66 W9 30.03R WCI 28 WRIGHTSTOWN CLOUDY 36 26 68 W7 29.99S WCI 30 TOMS RIVER PTCLDY 36 27 69 W7 30.01S WCI 30 BELMAR PTCLDY 34 23 64 W7 29.99R WCI 28 $$ PAZ047>061-062-071-190900- EASTERN PENNSYLVANIA CITY SKY/WX TMP DP RH WIND PRES REMARKS PHILADELPHIA MOCLDY 37 25 61 W9 30.05R WCI 30 ALLENTOWN CLOUDY 36 24 62 NW6 30.01R WCI 31 SCRANTON CLOUDY 34 24 67 NW12 29.98S WCI 25 $$ CTZ002-004>006-009-010-012-RIZ004-006-007-MAZ004-011-015-190900- SOUTHERN NEW ENGLAND IN CT CITY SKY/WX TMP DP RH WIND PRES REMARKS BRADLEY INTL CLOUDY 35 24 64 NW13 29.91F WCI 26 HARTFORD CLOUDY 36 25 64 W9 29.94S WCI 29 DANBURY CLOUDY 35 23 61 NW5 29.95S WCI 31 WTRBRY/OXFORD CLOUDY 32 21 64 W3 29.93R BRIDGEPORT CLOUDY 36 27 69 W5 29.95S WCI 32 MERIDEN CLOUDY 35 25 66 NW6 29.94S WCI 30 NEW HAVEN CLOUDY 38 27 64 VRB3 29.94S CHESTER CLOUDY 34 28 80 NW9 29.92S WCI 26 GROTON CLOUDY 35 27 72 NW10 29.92S WCI 27 WILLIMANTIC CLOUDY 35 25 66 NW8 29.91S WCI 29 IN RI CITY SKY/WX TMP DP RH WIND PRES REMARKS PROVIDENCE CLOUDY 35 25 66 W8 29.90R WCI 29 BLOCK ISLAND CLOUDY 37 25 60 NW10G18 29.90S WCI 30 WESTERLY CLOUDY 35 26 69 CALM 29.92R IN MA CITY SKY/WX TMP DP RH WIND PRES REMARKS BOSTON PTCLDY 36 25 64 W8 29.87S WCI 30 WORCESTER CLOUDY 31 25 78 W9 29.85S WCI 23 WESTFIELD CLOUDY 35 23 61 NW9 29.91S WCI 28 PROVINCETOWN CLOUDY 37 25 60 NW18G25 29.85F WCI 27 NANTUCKET PTCLDY 37 28 70 NW8 29.87R WCI 31 $$ ANZ330-335-338-340-345-350-353-355-190900- COASTAL MARINE OBSERVATIONS STATION/POSITION TIME SKY/WX TEMP WIND PRES VSBY WAVE AIR SEA DIR/SP/G HT/PER (UTC) (F) (DEG/KT/KT) (MB) (MI) (FT/S) NY HARB ENTRANCE 0800 40 47 310/ 17/ 23 1015.0 2/ 4 4S FIRE IS 0800 47 N/A 2/ 3 20S FIRE ISLAND 0700 41 49 1014.8 3/ 4 23SW MTP 0800 N/A 3/ 5 HUDSON CANYON 0800 42 55 310/ 17/ 19 1013.9 5/ 6 EXECUTION ROCKS 0800 38 42 320/ 10/ 14 N/A WESTERN LI SOUND 0800 38 310/ 12/ 16 N/A 1 CENTRAL LI SOUND 0700 38 45 300/ 14/ 17 N/A 2/ 4 EASTERN LI SOUND NOT AVBL ROBBINS REEF 0800 37 330/ 7/ 13 1014.0 $$ >>>>>>>>>>>>>>>>>>>>>>>>>>>> KEY <<<<<<<<<<<<<<<<<<<<<<<<<<< > < > SKY/WX - SKY CONDITION/PRESENT WEATHER < > TMP - TEMPERATURE IN FAHRENHEIT < > DP - DEWPOINT IN FAHRENHEIT < > RH - RELATIVE HUMIDITY IN PERCENT < > WIND - DIRECTION AND SPEED IN MPH < > PRES - MEAN SEA LEVEL PRESSURE IN INCHES OF HG < > WCI - WIND CHILL INDEX < > VSB - VISIBILITY IN MILES < > HX - HEAT INDEX < > TC - TEMPERATURE IN CELSIUS < > VRB - VARIABLE WIND DIRECTION < > < >>>>>>>>>>>>>>>>>>>>>>>>>>>> KEY <<<<<<<<<<<<<<<<<<<<<<<<<<<

USA.gov is the U.S. government's official web portal to all federal, state and local government web resources and services.